Weather History for Knoxville, TN

Change the Weather History Date:

Thursday, March 3, 2011

  Actual Average Record
Temperature  
Mean Temperature 55 °F 47 °F  
Max Temperature 70 °F 57 °F 76 °F (1951)
Min Temperature 40 °F 36 °F 1 °F (1980)
Degree Days  
Heating Degree Days 10 18  
Month to date heating degree days 42 56  
Since 1 July heating degree days 3017 2952  
Cooling Degree Days 0 0  
Month to date cooling degree days 0 0  
Year to date cooling degree days 0 0  
Growing Degree Days 5 (Base 50)    
Moisture  
Dew Point 31 °F    
Average Humidity 46    
Maximum Humidity 65    
Minimum Humidity 26    
Precipitation  
Precipitation 0.00 in 0.14 in 1.98 in (1871)
Month to date precipitation 0.00 0.43  
Year to date precipitation 7.51 9.01  
Snow  
Snow 0.00 in 0.00 in - ()
Month to date snowfall 0.0 0.1  
Since 1 July snowfall 12.3 5.2  
Snow Depth 0.00 in    
Sea Level Pressure  
Sea Level Pressure 30.28 in    
Wind  
Wind Speed 7 mph (ENE)    
Max Wind Speed 18 mph    
Max Gust Speed 26 mph    
Visibility 10 miles    
Events      
T = Trace of Precipitation, MM = Missing Value Source: NWS Daily Summary

Daily Weather History Graph

Daily Weather History Graph

Search for Another Location

Airport:

Trip Planner

Search our weather history database for the weather conditions in past years. The results will help you decide how hot, cold, wet, or windy it might be!

Date:

Astronomy

Mar. 03, 2011 Rise Set
Actual Time 7:03 AM EST 6:32 PM EST
Civil Twilight 6:38 AM EST 6:58 PM EST
Nautical Twilight 6:08 AM EST 7:27 PM EST
Astronomical Twilight 5:38 AM EST 7:57 PM EST
Moon 6:08 AM EST (3/3) 5:44 PM EST (3/3)
Length of Visible Light 12h 20m
Length of Day
11h 28m
Waning Crescent, 1% of the Moon is Illuminated
Mar 3
Waning Crescent
Mar 4
New
Mar 12
First Quarter
Mar 19
Full
Mar 26
Last Quarter

Hourly Weather History & Observations

Time (EST) Temp. Windchill Dew Point Humidity Pressure Visibility Wind Dir Wind Speed Gust Speed Precip Events Conditions
12:53 AM 48.0 °F - 30.0 °F 50% 30.29 in 10.0 mi NNE 6.9 mph - N/A   Clear
1:53 AM 46.9 °F - 30.0 °F 52% 30.28 in 10.0 mi NNE 9.2 mph - N/A   Clear
2:53 AM 45.0 °F 39.7 °F 30.9 °F 58% 30.28 in 10.0 mi NNE 10.4 mph - N/A   Clear
3:53 AM 44.1 °F 38.6 °F 30.9 °F 60% 30.28 in 10.0 mi NNE 10.4 mph - N/A   Clear
4:53 AM 43.0 °F 38.8 °F 30.0 °F 60% 30.29 in 10.0 mi NNE 6.9 mph - N/A   Clear
5:53 AM 42.1 °F 36.6 °F 30.9 °F 65% 30.31 in 10.0 mi NNE 9.2 mph - N/A   Clear
6:53 AM 41.0 °F 35.2 °F 30.0 °F 65% 30.33 in 10.0 mi NE 9.2 mph - N/A   Clear
7:53 AM 44.1 °F 40.8 °F 30.9 °F 60% 30.34 in 10.0 mi NNE 5.8 mph - N/A   Clear
8:53 AM 46.9 °F - 32.0 °F 56% 30.35 in 10.0 mi NE 9.2 mph - N/A   Clear
9:53 AM 51.1 °F - 33.1 °F 50% 30.34 in 10.0 mi NNE 5.8 mph - N/A   Clear
10:53 AM 55.0 °F - 34.0 °F 45% 30.33 in 10.0 mi Calm Calm - N/A   Clear
11:53 AM 60.1 °F - 34.0 °F 38% 30.31 in 10.0 mi Calm Calm - N/A   Clear
12:53 PM 64.0 °F - 34.0 °F 33% 30.28 in 10.0 mi Calm Calm - N/A   Clear
1:53 PM 64.9 °F - 34.0 °F 32% 30.25 in 10.0 mi Calm Calm - N/A   Clear
2:53 PM 68.0 °F - 34.0 °F 28% 30.22 in 10.0 mi NE 3.5 mph - N/A   Clear
3:53 PM 69.1 °F - 34.0 °F 27% 30.20 in 10.0 mi Calm Calm - N/A   Clear
4:53 PM 69.1 °F - 34.0 °F 27% 30.20 in 10.0 mi Calm Calm - N/A   Clear
5:53 PM 64.9 °F - 33.1 °F 31% 30.22 in 10.0 mi SSE 4.6 mph - N/A   Clear
6:53 PM 63.0 °F - 30.9 °F 30% 30.24 in 10.0 mi SSE 10.4 mph - N/A   Clear
7:53 PM 60.1 °F - 30.0 °F 32% 30.25 in 10.0 mi South 10.4 mph - N/A   Clear
8:53 PM 59.0 °F - 28.0 °F 31% 30.25 in 10.0 mi South 12.7 mph - N/A   Clear
9:53 PM 57.9 °F - 27.0 °F 31% 30.27 in 10.0 mi South 12.7 mph - N/A   Clear
10:53 PM 57.0 °F - 27.0 °F 32% 30.27 in 10.0 mi South 16.1 mph - N/A   Clear
11:53 PM 57.0 °F - 27.0 °F 32% 30.28 in 10.0 mi South 15.0 mph 26.5 mph N/A   Clear